| time (UTC) | temp F | wind direction | speed knots | gust knots | rain 1hr in | rain 24hr in | rain mn in | humidity % | barometer mb |
| 20260507190033 | 49 | 0 | 0.9 | 1.7 | 0.03 | 0.03 | 0.00 | 88 | 1014.7 |
| 20260507185530 | 50 | 0 | 0.9 | 0.9 | 0.03 | 0.03 | 0.00 | 88 | 1014.7 |
| 20260507185031 | 50 | 0 | 0.0 | 0.9 | 0.03 | 0.03 | 0.00 | 87 | 1014.5 |
| 20260507184537 | 50 | 0 | 0.0 | 0.9 | 0.02 | 0.02 | 0.00 | 87 | 1014.6 |
| 20260507184030 | 50 | 0 | 0.0 | 0.9 | 0.02 | 0.02 | 0.00 | 86 | 1014.5 |
| 20260507183530 | 51 | 0 | 0.9 | 1.7 | 0.01 | 0.01 | 0.00 | 84 | 1014.4 |
| 20260507183038 | 51 | 0 | 0.0 | 2.6 | 0.01 | 0.01 | 0.00 | 82 | 1014.5 |
| 20260507182532 | 52 | 0 | 0.9 | 1.7 | 0.00 | 0.00 | 0.00 | 82 | 1014.5 |
| 20260507182033 | 52 | 0 | 0.9 | 1.7 | 0.00 | 0.00 | 0.00 | 79 | 1014.4 |
| 20260507181531 | 52 | 0 | 0.9 | 2.6 | 0.00 | 0.00 | 0.00 | 78 | 1014.2 |
| 20260507181033 | 52 | 0 | 0.0 | 0.9 | 0.00 | 0.00 | 0.00 | 78 | 1014.2 |
| 20260507180535 | 52 | 0 | 0.0 | 0.9 | 0.00 | 0.00 | 0.00 | 78 | 1014.1 |
| 20260507180030 | 52 | 0 | 0.9 | 1.7 | 0.00 | 0.00 | 0.00 | 76 | 1014.0 |
| 20260507175534 | 52 | 0 | 0.9 | 3.5 | 0.00 | 0.00 | 0.00 | 75 | 1014.0 |
| 20260507175031 | 52 | 0 | 0.0 | 3.5 | 0.00 | 0.00 | 0.00 | 75 | 1014.0 |
| 20260507174533 | 52 | 0 | 0.0 | 2.6 | 0.00 | 0.00 | 0.00 | 77 | 1014.0 |
| 20260507174033 | 53 | 0 | 0.9 | 0.9 | 0.00 | 0.00 | 0.00 | 76 | 1013.9 |
| 20260507173533 | 53 | 0 | 0.0 | 0.9 | 0.00 | 0.00 | 0.00 | 76 | 1013.7 |
| 20260507173031 | 53 | 0 | 0.9 | 2.6 | 0.00 | 0.00 | 0.00 | 75 | 1013.7 |
| 20260507172530 | 53 | 0 | 0.9 | 2.6 | 0.00 | 0.00 | 0.00 | 75 | 1013.7 |
| 20260507172033 | 53 | 0 | 2.6 | 2.6 | 0.00 | 0.00 | 0.00 | 75 | 1013.6 |
| 20260507171536 | 54 | 0 | 0.0 | 1.7 | 0.00 | 0.00 | 0.00 | 75 | 1013.6 |
| 20260507171036 | 54 | 0 | 0.9 | 0.9 | 0.00 | 0.00 | 0.00 | 76 | 1013.6 |
| 20260507170536 | 54 | 0 | 0.0 | 0.9 | 0.00 | 0.00 | 0.00 | 76 | 1013.5 |
| 20260507170030 | 54 | 0 | 1.7 | 1.7 | 0.00 | 0.00 | 0.00 | 75 | 1013.4 |
| 20260507165533 | 54 | 0 | 0.9 | 1.7 | 0.00 | 0.00 | 0.00 | 78 | 1013.5 |
| 20260507165031 | 53 | 0 | 0.9 | 2.6 | 0.00 | 0.00 | 0.00 | 78 | 1013.3 |
| 20260507164530 | 53 | 0 | 0.0 | 2.6 | 0.00 | 0.00 | 0.00 | 77 | 1013.3 |
| 20260507164033 | 53 | 0 | 0.0 | 2.6 | 0.00 | 0.00 | 0.00 | 78 | 1013.2 |
| 20260507163530 | 54 | 0 | 0.9 | 1.7 | 0.00 | 0.00 | 0.00 | 78 | 1013.2 |
| 20260507163033 | 54 | 0 | 0.9 | 1.7 | 0.00 | 0.00 | 0.00 | 78 | 1013.1 |
| 20260507162530 | 54 | 0 | 0.9 | 1.7 | 0.00 | 0.00 | 0.00 | 78 | 1013.2 |
| 20260507162037 | 54 | 0 | 0.9 | 2.6 | 0.00 | 0.00 | 0.00 | 78 | 1013.1 |
| 20260507161530 | 54 | 0 | 0.9 | 3.5 | 0.00 | 0.00 | 0.00 | 78 | 1013.0 |
| 20260507161031 | 54 | 0 | 1.7 | 3.5 | 0.00 | 0.00 | 0.00 | 78 | 1012.8 |
| 20260507160530 | 54 | 0 | 1.7 | 3.5 | 0.00 | 0.00 | 0.00 | 78 | 1012.7 |
| 20260507160033 | 54 | 0 | 1.7 | 2.6 | 0.00 | 0.00 | 0.00 | 78 | 1012.8 |
| 20260507155531 | 54 | 0 | 0.9 | 1.7 | 0.00 | 0.00 | 0.00 | 78 | 1012.7 |
| 20260507155030 | 54 | 0 | 0.9 | 2.6 | 0.00 | 0.00 | 0.00 | 78 | 1012.7 |
| 20260507154530 | 54 | 0 | 2.6 | 2.6 | 0.00 | 0.00 | 0.00 | 78 | 1012.6 |
| 20260507154030 | 54 | 0 | 0.9 | 3.5 | 0.00 | 0.00 | 0.00 | 78 | 1012.4 |
| 20260507153530 | 54 | 0 | 1.7 | 3.5 | 0.00 | 0.00 | 0.00 | 78 | 1012.4 |
| 20260507153036 | 54 | 0 | 2.6 | 3.5 | 0.00 | 0.00 | 0.00 | 77 | 1012.4 |
| 20260507152536 | 54 | 0 | 0.9 | 2.6 | 0.00 | 0.00 | 0.00 | 77 | 1012.4 |
| 20260507152039 | 54 | 0 | 2.6 | 3.5 | 0.00 | 0.00 | 0.00 | 77 | 1012.2 |
| 20260507151530 | 54 | 0 | 1.7 | 5.2 | 0.00 | 0.00 | 0.00 | 76 | 1012.3 |
| 20260507151030 | 54 | 0 | 1.7 | 2.6 | 0.00 | 0.00 | 0.00 | 76 | 1012.3 |
| 20260507150530 | 54 | 0 | 1.7 | 3.5 | 0.00 | 0.00 | 0.00 | 76 | 1012.2 |
| 20260507150031 | 54 | 0 | 2.6 | 3.5 | 0.00 | 0.00 | 0.00 | 76 | 1012.2 |
| 20260507145533 | 55 | 0 | 1.7 | 3.5 | 0.00 | 0.00 | 0.00 | 75 | 1012.2 |
| 20260507145031 | 55 | 0 | 0.9 | 3.5 | 0.00 | 0.00 | 0.00 | 75 | 1012.3 |
| 20260507144534 | 55 | 0 | 1.7 | 5.2 | 0.00 | 0.00 | 0.00 | 74 | 1012.2 |
| 20260507144034 | 55 | 0 | 0.9 | 4.3 | 0.00 | 0.00 | 0.00 | 75 | 1012.2 |
| 20260507143531 | 55 | 0 | 2.6 | 5.2 | 0.00 | 0.00 | 0.00 | 75 | 1012.1 |
| 20260507143036 | 55 | 0 | 3.5 | 5.2 | 0.00 | 0.00 | 0.00 | 74 | 1012.1 |
| 20260507142533 | 55 | 0 | 1.7 | 4.3 | 0.00 | 0.00 | 0.00 | 74 | 1012.2 |
| 20260507142036 | 55 | 0 | 1.7 | 3.5 | 0.00 | 0.00 | 0.00 | 75 | 1012.0 |
| 20260507141534 | 55 | 0 | 1.7 | 4.3 | 0.00 | 0.00 | 0.00 | 73 | 1012.1 |
| 20260507141031 | 55 | 0 | 3.5 | 5.2 | 0.00 | 0.00 | 0.00 | 73 | 1012.0 |
| 20260507140530 | 56 | 0 | 2.6 | 5.2 | 0.00 | 0.00 | 0.00 | 73 | 1011.8 |
| 20260507140030 | 56 | 0 | 1.7 | 4.3 | 0.00 | 0.00 | 0.00 | 72 | 1011.9 |
| 20260507135530 | 56 | 0 | 4.3 | 5.2 | 0.00 | 0.00 | 0.00 | 73 | 1011.9 |
| 20260507135030 | 56 | 0 | 1.7 | 3.5 | 0.00 | 0.00 | 0.00 | 72 | 1012.0 |
| 20260507134539 | 56 | 0 | 0.9 | 5.2 | 0.00 | 0.00 | 0.00 | 72 | 1011.8 |
| 20260507134030 | 56 | 0 | 3.5 | 7.0 | 0.00 | 0.00 | 0.00 | 71 | 1012.0 |
| 20260507133530 | 57 | 0 | 2.6 | 4.3 | 0.00 | 0.00 | 0.00 | 71 | 1012.0 |
| 20260507133037 | 57 | 0 | 1.7 | 5.2 | 0.00 | 0.00 | 0.00 | 70 | 1012.1 |
| 20260507132530 | 57 | 0 | 2.6 | 4.3 | 0.00 | 0.00 | 0.00 | 72 | 1012.1 |
| 20260507132033 | 56 | 0 | 3.5 | 7.0 | 0.00 | 0.00 | 0.00 | 73 | 1012.0 |
| 20260507131530 | 56 | 0 | 0.9 | 4.3 | 0.00 | 0.00 | 0.00 | 72 | 1012.0 |
| 20260507131036 | 55 | 0 | 1.7 | 4.3 | 0.00 | 0.00 | 0.00 | 71 | 1012.0 |
| 20260507130534 | 56 | 0 | 2.6 | 4.3 | 0.00 | 0.00 | 0.00 | 70 | 1011.9 |
| 20260507130031 | 57 | 0 | 2.6 | 7.0 | 0.00 | 0.00 | 0.00 | 70 | 1011.9 |
| 20260507125536 | 57 | 0 | 1.7 | 5.2 | 0.00 | 0.00 | 0.00 | 70 | 1011.8 |
| 20260507125036 | 57 | 0 | 1.7 | 7.8 | 0.00 | 0.00 | 0.00 | 71 | 1011.8 |
| 20260507124530 | 57 | 0 | 4.3 | 4.3 | 0.00 | 0.00 | 0.00 | 71 | 1011.8 |
| 20260507124034 | 56 | 0 | 2.6 | 7.0 | 0.00 | 0.00 | 0.00 | 71 | 1011.7 |
| 20260507123530 | 56 | 0 | 0.9 | 4.3 | 0.00 | 0.00 | 0.00 | 71 | 1011.6 |
| 20260507123030 | 56 | 0 | 0.9 | 7.0 | 0.00 | 0.00 | 0.00 | 73 | 1011.8 |
| 20260507122531 | 55 | 0 | 2.6 | 3.5 | 0.00 | 0.00 | 0.00 | 74 | 1011.6 |
| 20260507122033 | 55 | 0 | 1.7 | 5.2 | 0.00 | 0.00 | 0.00 | 72 | 1011.7 |
| 20260507121530 | 55 | 0 | 1.7 | 7.0 | 0.00 | 0.00 | 0.00 | 72 | 1011.7 |
| 20260507121039 | 55 | 0 | 1.7 | 7.0 | 0.00 | 0.00 | 0.00 | 72 | 1011.7 |
| 20260507120530 | 55 | 0 | 4.3 | 7.8 | 0.00 | 0.00 | 0.00 | 74 | 1011.5 |
| 20260507120030 | 54 | 0 | 5.2 | 5.2 | 0.00 | 0.00 | 0.00 | 74 | 1011.4 |
| 20260507115530 | 54 | 0 | 2.6 | 5.2 | 0.00 | 0.00 | 0.00 | 74 | 1011.4 |
| 20260507115030 | 54 | 0 | 0.9 | 4.3 | 0.00 | 0.00 | 0.00 | 74 | 1011.5 |
| 20260507114533 | 54 | 0 | 3.5 | 4.3 | 0.00 | 0.00 | 0.00 | 75 | 1011.5 |
| 20260507114033 | 54 | 0 | 2.6 | 5.2 | 0.00 | 0.00 | 0.00 | 76 | 1011.5 |
| 20260507113536 | 54 | 0 | 3.5 | 5.2 | 0.00 | 0.00 | 0.00 | 75 | 1011.5 |
| 20260507113031 | 54 | 0 | 1.7 | 5.2 | 0.00 | 0.00 | 0.00 | 75 | 1011.7 |
| 20260507112531 | 54 | 0 | 0.9 | 5.2 | 0.00 | 0.00 | 0.00 | 75 | 1011.7 |
| 20260507112030 | 54 | 0 | 3.5 | 5.2 | 0.00 | 0.00 | 0.00 | 76 | 1011.8 |
| 20260507111533 | 53 | 0 | 1.7 | 5.2 | 0.00 | 0.00 | 0.00 | 76 | 1011.5 |
| 20260507111030 | 53 | 0 | 2.6 | 7.0 | 0.00 | 0.00 | 0.00 | 76 | 1011.6 |
| 20260507110530 | 53 | 0 | 2.6 | 4.3 | 0.00 | 0.00 | 0.00 | 76 | 1011.6 |
| 20260507110040 | 53 | 0 | 1.7 | 4.3 | 0.00 | 0.00 | 0.00 | 78 | 1011.6 |
| 20260507105536 | 53 | 0 | 2.6 | 4.3 | 0.00 | 0.00 | 0.00 | 77 | 1011.7 |
| 20260507105033 | 52 | 0 | 1.7 | 5.2 | 0.00 | 0.00 | 0.00 | 77 | 1011.7 |
| 20260507104533 | 52 | 0 | 4.3 | 5.2 | 0.00 | 0.00 | 0.00 | 78 | 1011.6 |
| 20260507104037 | 52 | 0 | 2.6 | 5.2 | 0.00 | 0.00 | 0.00 | 78 | 1011.7 |
| 20260507103530 | 52 | 0 | 1.7 | 4.3 | 0.00 | 0.00 | 0.00 | 79 | 1011.7 |
| 20260507103034 | 52 | 0 | 3.5 | 5.2 | 0.00 | 0.00 | 0.00 | 79 | 1011.7 |
| 20260507102536 | 52 | 0 | 2.6 | 7.0 | 0.00 | 0.00 | 0.00 | 78 | 1011.7 |
| 20260507102031 | 52 | 0 | 1.7 | 5.2 | 0.00 | 0.00 | 0.00 | 77 | 1011.5 |
| 20260507101530 | 53 | 0 | 0.9 | 5.2 | 0.00 | 0.00 | 0.00 | 77 | 1011.5 |
| 20260507101036 | 53 | 0 | 1.7 | 5.2 | 0.00 | 0.00 | 0.00 | 78 | 1011.5 |
| 20260507100530 | 52 | 0 | 2.6 | 7.8 | 0.00 | 0.00 | 0.00 | 77 | 1011.6 |
| 20260507100030 | 52 | 0 | 1.7 | 5.2 | 0.00 | 0.00 | 0.00 | 77 | 1011.4 |
| 20260507095531 | 52 | 0 | 1.7 | 5.2 | 0.00 | 0.00 | 0.00 | 78 | 1011.3 |
| 20260507095033 | 52 | 0 | 3.5 | 5.2 | 0.00 | 0.00 | 0.00 | 78 | 1011.3 |
| 20260507094531 | 52 | 0 | 0.0 | 7.0 | 0.00 | 0.00 | 0.00 | 78 | 1011.1 |
| 20260507094030 | 51 | 0 | 2.6 | 4.3 | 0.00 | 0.00 | 0.00 | 79 | 1011.1 |
| 20260507093536 | 51 | 0 | 0.9 | 5.2 | 0.00 | 0.00 | 0.00 | 79 | 1011.0 |
| 20260507093031 | 51 | 0 | 2.6 | 5.2 | 0.00 | 0.00 | 0.00 | 77 | 1011.1 |
| 20260507092530 | 52 | 0 | 1.7 | 7.8 | 0.00 | 0.00 | 0.00 | 76 | 1011.0 |
| 20260507092034 | 52 | 0 | 1.7 | 7.0 | 0.00 | 0.00 | 0.00 | 77 | 1010.9 |
| 20260507091533 | 52 | 0 | 1.7 | 4.3 | 0.00 | 0.00 | 0.00 | 76 | 1010.9 |
| 20260507091030 | 51 | 0 | 1.7 | 5.2 | 0.00 | 0.00 | 0.00 | 76 | 1010.7 |
| 20260507090533 | 51 | 0 | 1.7 | 5.2 | 0.00 | 0.00 | 0.00 | 76 | 1010.7 |
| 20260507090030 | 51 | 0 | 2.6 | 3.5 | 0.00 | 0.00 | 0.00 | 76 | 1010.6 |
| 20260507085531 | 51 | 0 | 0.9 | 4.3 | 0.00 | 0.00 | 0.00 | 77 | 1010.7 |
| 20260507085030 | 51 | 0 | 1.7 | 4.3 | 0.00 | 0.00 | 0.00 | 77 | 1010.6 |
| 20260507084534 | 51 | 0 | 1.7 | 3.5 | 0.00 | 0.00 | 0.00 | 78 | 1010.6 |
| 20260507084037 | 50 | 0 | 1.7 | 4.3 | 0.00 | 0.00 | 0.00 | 79 | 1010.7 |
| 20260507083533 | 50 | 0 | 1.7 | 4.3 | 0.00 | 0.00 | 0.00 | 79 | 1010.7 |
| 20260507083036 | 50 | 0 | 0.9 | 3.5 | 0.00 | 0.00 | 0.00 | 79 | 1010.6 |
| 20260507082533 | 49 | 0 | 1.7 | 2.6 | 0.00 | 0.00 | 0.00 | 80 | 1010.5 |
| 20260507082031 | 49 | 0 | 0.9 | 2.6 | 0.00 | 0.00 | 0.00 | 80 | 1010.6 |
| 20260507081531 | 49 | 0 | 1.7 | 2.6 | 0.00 | 0.00 | 0.00 | 80 | 1010.6 |
| 20260507081033 | 49 | 0 | 1.7 | 2.6 | 0.00 | 0.00 | 0.00 | 80 | 1010.6 |
| 20260507080533 | 48 | 0 | 1.7 | 3.5 | 0.00 | 0.00 | 0.00 | 80 | 1010.7 |
| 20260507080034 | 48 | 0 | 1.7 | 2.6 | 0.00 | 0.00 | 0.00 | 81 | 1010.7 |
| 20260507075533 | 48 | 0 | 1.7 | 2.6 | 0.00 | 0.00 | 0.00 | 82 | 1010.8 |
| 20260507075034 | 48 | 0 | 0.9 | 2.6 | 0.00 | 0.00 | 0.00 | 82 | 1010.7 |
| 20260507074530 | 47 | 0 | 0.9 | 2.6 | 0.00 | 0.00 | 0.00 | 83 | 1010.8 |
| 20260507074031 | 47 | 0 | 0.9 | 1.7 | 0.00 | 0.00 | 0.00 | 83 | 1010.8 |
| 20260507073533 | 47 | 0 | 0.9 | 1.7 | 0.00 | 0.00 | 0.00 | 84 | 1010.9 |
| 20260507073036 | 47 | 0 | 0.9 | 1.7 | 0.00 | 0.00 | 0.00 | 84 | 1010.8 |
| 20260507072533 | 46 | 0 | 0.0 | 1.7 | 0.00 | 0.00 | 0.00 | 84 | 1010.8 |
| 20260507072030 | 46 | 0 | 0.9 | 1.7 | 0.00 | 0.00 | 0.00 | 83 | 1010.9 |
| 20260507071536 | 46 | 0 | 0.0 | 1.7 | 0.00 | 0.00 | 0.00 | 83 | 1010.9 |
| 20260507071033 | 46 | 0 | 1.7 | 1.7 | 0.00 | 0.00 | 0.00 | 83 | 1010.8 |
| 20260507070530 | 46 | 0 | 0.9 | 1.7 | 0.00 | 0.00 | 0.00 | 83 | 1010.8 |
| 20260507070031 | 46 | 0 | 0.9 | 1.7 | 0.00 | 0.00 | 0.00 | 83 | 1010.9 |
| 20260507065530 | 45 | 0 | 0.9 | 1.7 | 0.00 | 0.00 | 0.00 | 84 | 1010.9 |
| 20260507065030 | 45 | 0 | 0.9 | 0.9 | 0.00 | 0.00 | 0.00 | 84 | 1010.9 |
| 20260507064533 | 45 | 0 | 0.0 | 0.9 | 0.00 | 0.00 | 0.00 | 84 | 1010.8 |
| 20260507064030 | 44 | 0 | 0.0 | 0.9 | 0.00 | 0.00 | 0.00 | 84 | 1010.8 |
| 20260507063531 | 44 | 0 | 0.0 | 0.9 | 0.00 | 0.00 | 0.00 | 84 | 1010.8 |
| 20260507063033 | 44 | 0 | 0.0 | 0.9 | 0.00 | 0.00 | 0.00 | 85 | 1010.7 |
| 20260507062533 | 44 | 0 | 0.0 | 0.9 | 0.00 | 0.00 | 0.00 | 85 | 1010.8 |
| 20260507062031 | 44 | 0 | 0.0 | 0.9 | 0.00 | 0.00 | 0.00 | 86 | 1010.8 |
| 20260507061530 | 44 | 0 | 0.0 | 0.9 | 0.00 | 0.00 | 0.00 | 85 | 1010.8 |
| 20260507061033 | 43 | 0 | 0.0 | 0.0 | 0.00 | 0.00 | 0.00 | 87 | 1010.9 |
| 20260507060539 | 43 | 0 | 0.0 | 0.9 | 0.00 | 0.00 | 0.00 | 86 | 1011.0 |
| 20260507060030 | 43 | 0 | 0.0 | 0.9 | 0.00 | 0.00 | 0.00 | 87 | 1010.9 |
| 20260507055539 | 43 | 0 | 0.0 | 0.0 | 0.00 | 0.00 | 0.00 | 87 | 1010.9 |
| 20260507055036 | 43 | 0 | 0.0 | 0.9 | 0.00 | 0.00 | 0.00 | 87 | 1010.8 |
| 20260507054530 | 43 | 0 | 0.0 | 0.9 | 0.00 | 0.00 | 0.00 | 87 | 1010.7 |
| 20260507054033 | 43 | 0 | 0.0 | 0.9 | 0.00 | 0.00 | 0.00 | 88 | 1010.7 |
| 20260507053530 | 43 | 0 | 0.0 | 0.9 | 0.00 | 0.00 | 0.00 | 89 | 1010.6 |
| 20260507053031 | 42 | 0 | 0.0 | 0.0 | 0.00 | 0.00 | 0.00 | 90 | 1010.6 |
| 20260507052536 | 42 | 0 | 0.0 | 0.9 | 0.00 | 0.00 | 0.00 | 90 | 1010.4 |
| 20260507052030 | 42 | 0 | 0.0 | 0.9 | 0.00 | 0.00 | 0.00 | 90 | 1010.3 |
| 20260507051533 | 42 | 0 | 0.0 | 0.9 | 0.00 | 0.00 | 0.00 | 91 | 1010.5 |
| 20260507051031 | 41 | 0 | 0.9 | 0.9 | 0.00 | 0.00 | 0.00 | 90 | 1010.2 |
| 20260507050530 | 41 | 0 | 0.0 | 0.9 | 0.00 | 0.00 | 0.00 | 90 | 1010.3 |
| 20260507050033 | 41 | 0 | 0.0 | 0.9 | 0.00 | 0.00 | 0.00 | 90 | 1010.2 |
| 20260507045530 | 41 | 0 | 0.0 | 0.9 | 0.00 | 0.00 | 0.00 | 90 | 1010.1 |
| 20260507045033 | 41 | 0 | 0.0 | 0.9 | 0.00 | 0.00 | 0.00 | 90 | 1010.3 |
| 20260507044533 | 41 | 0 | 0.0 | 0.9 | 0.00 | 0.00 | 0.00 | 90 | 1010.3 |
| 20260507044036 | 41 | 0 | 0.9 | 1.7 | 0.00 | 0.00 | 0.00 | 90 | 1010.2 |
| 20260507043530 | 41 | 0 | 0.0 | 0.9 | 0.00 | 0.00 | 0.00 | 90 | 1010.2 |
| 20260507043030 | 40 | 0 | 0.9 | 0.9 | 0.00 | 0.00 | 0.00 | 90 | 1010.3 |
| 20260507042533 | 40 | 0 | 0.9 | 0.9 | 0.00 | 0.00 | 0.00 | 89 | 1010.1 |
| 20260507042033 | 41 | 0 | 0.0 | 0.9 | 0.00 | 0.00 | 0.00 | 89 | 1010.2 |
| 20260507041536 | 41 | 0 | 0.0 | 0.9 | 0.00 | 0.00 | 0.00 | 89 | 1010.2 |
| 20260507041030 | 41 | 0 | 0.9 | 0.9 | 0.00 | 0.00 | 0.00 | 89 | 1010.2 |
| 20260507040530 | 41 | 0 | 0.0 | 0.9 | 0.00 | 0.01 | 0.00 | 89 | 1010.3 |
| 20260507040031 | 41 | 0 | 0.9 | 0.9 | 0.00 | 0.01 | 0.00 | 89 | 1010.4 |
| 20260507035533 | 41 | 0 | 0.9 | 1.7 | 0.00 | 0.02 | 0.00 | 89 | 1010.6 |
| 20260507035033 | 41 | 0 | 0.9 | 1.7 | 0.00 | 0.03 | 0.00 | 89 | 1010.3 |
| 20260507034533 | 41 | 0 | 0.0 | 0.9 | 0.00 | 0.04 | 0.00 | 89 | 1010.4 |
| 20260507034033 | 41 | 0 | 0.0 | 0.9 | 0.00 | 0.07 | 0.00 | 89 | 1010.6 |
| 20260507033531 | 41 | 0 | 0.0 | 0.9 | 0.00 | 0.09 | 0.00 | 89 | 1010.5 |
| 20260507033033 | 41 | 0 | 0.9 | 0.9 | 0.00 | 0.12 | 0.00 | 89 | 1010.5 |
| 20260507032534 | 41 | 0 | 0.0 | 0.0 | 0.00 | 0.15 | 0.00 | 90 | 1010.8 |
| 20260507032030 | 41 | 0 | 0.0 | 0.0 | 0.00 | 0.18 | 0.00 | 90 | 1010.6 |
| 20260507031530 | 41 | 0 | 0.0 | 0.0 | 0.00 | 0.21 | 0.00 | 89 | 1010.6 |
| 20260507031030 | 41 | 0 | 0.0 | 0.9 | 0.00 | 0.22 | 0.00 | 89 | 1010.8 |
| 20260507030533 | 41 | 0 | 0.0 | 0.9 | 0.00 | 0.23 | 0.00 | 89 | 1010.5 |
| 20260507030033 | 41 | 0 | 0.9 | 1.7 | 0.00 | 0.25 | 0.00 | 89 | 1010.7 |
| 20260507025530 | 41 | 0 | 0.9 | 2.6 | 0.00 | 0.26 | 0.00 | 89 | 1010.8 |
| 20260507025030 | 41 | 0 | 0.9 | 2.6 | 0.00 | 0.26 | 0.00 | 89 | 1010.9 |
| 20260507024534 | 41 | 0 | 0.9 | 1.7 | 0.00 | 0.26 | 0.00 | 89 | 1010.9 |
| 20260507024030 | 41 | 0 | 0.9 | 1.7 | 0.00 | 0.26 | 0.00 | 89 | 1010.9 |
| 20260507023537 | 41 | 0 | 0.9 | 1.7 | 0.00 | 0.26 | 0.00 | 88 | 1010.9 |
| 20260507023030 | 41 | 0 | 0.9 | 0.9 | 0.00 | 0.27 | 0.00 | 88 | 1010.9 |
| 20260507022530 | 42 | 0 | 0.0 | 0.9 | 0.00 | 0.27 | 0.00 | 88 | 1011.0 |
| 20260507022033 | 42 | 0 | 0.9 | 1.7 | 0.00 | 0.29 | 0.00 | 88 | 1011.0 |
| 20260507021537 | 42 | 0 | 0.0 | 0.9 | 0.00 | 0.29 | 0.00 | 88 | 1011.1 |
| 20260507021034 | 42 | 0 | 0.0 | 0.9 | 0.00 | 0.29 | 0.00 | 87 | 1011.1 |
| 20260507020531 | 42 | 0 | 0.0 | 0.9 | 0.00 | 0.29 | 0.00 | 87 | 1011.1 |
| 20260507020033 | 42 | 0 | 0.0 | 0.9 | 0.00 | 0.29 | 0.00 | 87 | 1011.1 |
| 20260507015531 | 42 | 0 | 0.9 | 1.7 | 0.00 | 0.30 | 0.00 | 87 | 1011.3 |
| 20260507015030 | 42 | 0 | 0.9 | 0.9 | 0.00 | 0.31 | 0.00 | 87 | 1011.2 |
| 20260507014531 | 42 | 0 | 0.9 | 0.9 | 0.00 | 0.33 | 0.00 | 86 | 1011.4 |
| 20260507014036 | 42 | 0 | 0.0 | 0.9 | 0.00 | 0.33 | 0.00 | 86 | 1011.3 |
| 20260507013530 | 42 | 0 | 0.0 | 0.9 | 0.00 | 0.33 | 0.00 | 86 | 1011.4 |
| 20260507013030 | 43 | 0 | 0.9 | 1.7 | 0.00 | 0.33 | 0.00 | 86 | 1011.3 |
| 20260507012533 | 43 | 0 | 0.9 | 0.9 | 0.00 | 0.33 | 0.00 | 86 | 1011.3 |
| 20260507012033 | 43 | 0 | 0.0 | 0.9 | 0.00 | 0.33 | 0.00 | 87 | 1011.5 |
| 20260507011533 | 43 | 0 | 0.0 | 0.9 | 0.00 | 0.33 | 0.00 | 87 | 1011.4 |
| 20260507010536 | 43 | 0 | 0.9 | 0.9 | 0.00 | 0.33 | 0.00 | 86 | 1011.6 |
| 20260507010036 | 43 | 0 | 0.0 | 1.7 | 0.00 | 0.33 | 0.00 | 86 | 1011.6 |
| 20260507005531 | 42 | 0 | 0.9 | 1.7 | 0.00 | 0.33 | 0.00 | 86 | 1011.6 |
| 20260507005039 | 42 | 0 | 0.9 | 1.7 | 0.00 | 0.33 | 0.00 | 85 | 1011.7 |
| 20260507004536 | 43 | 0 | 0.0 | 0.9 | 0.00 | 0.33 | 0.00 | 85 | 1011.7 |
| 20260507004030 | 43 | 0 | 0.0 | 0.0 | 0.00 | 0.34 | 0.00 | 85 | 1011.7 |
| 20260507003533 | 43 | 0 | 0.0 | 0.9 | 0.00 | 0.34 | 0.00 | 85 | 1011.8 |
| 20260507003039 | 43 | 0 | 0.0 | 0.9 | 0.00 | 0.34 | 0.00 | 85 | 1011.7 |
| 20260507002533 | 43 | 0 | 0.0 | 0.9 | 0.00 | 0.34 | 0.00 | 85 | 1011.8 |
| 20260507002034 | 43 | 0 | 0.0 | 0.9 | 0.00 | 0.34 | 0.00 | 86 | 1011.9 |
| 20260507001533 | 43 | 0 | 0.9 | 0.9 | 0.00 | 0.35 | 0.00 | 86 | 1011.7 |
| 20260507001030 | 43 | 0 | 0.0 | 0.0 | 0.00 | 0.36 | 0.00 | 86 | 1011.8 |
| 20260507000534 | 43 | 0 | 0.0 | 0.9 | 0.00 | 0.37 | 0.00 | 85 | 1011.8 |
| 20260507000030 | 43 | 0 | 0.9 | 0.9 | 0.00 | 0.37 | 0.00 | 85 | 1011.9 |
| 20260506235536 | 43 | 0 | 0.9 | 0.9 | 0.00 | 0.38 | 0.00 | 85 | 1012.0 |
| 20260506235030 | 43 | 0 | 0.9 | 1.7 | 0.00 | 0.39 | 0.00 | 84 | 1012.1 |
| 20260506234530 | 43 | 0 | 0.9 | 1.7 | 0.00 | 0.40 | 0.00 | 84 | 1012.2 |
| 20260506234034 | 43 | 0 | 1.7 | 1.7 | 0.00 | 0.41 | 0.00 | 84 | 1012.2 |
| 20260506233539 | 43 | 0 | 0.9 | 0.9 | 0.00 | 0.43 | 0.00 | 84 | 1012.1 |
| 20260506233030 | 43 | 0 | 0.9 | 1.7 | 0.00 | 0.45 | 0.00 | 84 | 1012.1 |
| 20260506232530 | 43 | 0 | 0.0 | 1.7 | 0.00 | 0.47 | 0.00 | 84 | 1012.1 |
| 20260506232030 | 43 | 0 | 0.0 | 0.9 | 0.00 | 0.48 | 0.00 | 85 | 1012.1 |
| 20260506231533 | 43 | 0 | 0.0 | 1.7 | 0.00 | 0.48 | 0.00 | 84 | 1012.1 |
| 20260506231036 | 43 | 0 | 0.9 | 1.7 | 0.00 | 0.50 | 0.00 | 84 | 1012.2 |
| 20260506230539 | 44 | 0 | 0.9 | 0.9 | 0.00 | 0.51 | 0.00 | 83 | 1012.1 |
| 20260506230034 | 44 | 0 | 0.9 | 0.9 | 0.00 | 0.51 | 0.00 | 83 | 1012.2 |
| 20260506225533 | 44 | 0 | 0.0 | 1.7 | 0.00 | 0.51 | 0.00 | 83 | 1012.2 |
| 20260506225039 | 44 | 0 | 0.9 | 0.9 | 0.00 | 0.52 | 0.00 | 84 | 1012.2 |
| 20260506224530 | 44 | 0 | 0.9 | 0.9 | 0.00 | 0.52 | 0.00 | 84 | 1012.3 |
| 20260506224031 | 44 | 0 | 0.0 | 0.9 | 0.00 | 0.53 | 0.00 | 83 | 1012.5 |
| 20260506223531 | 44 | 0 | 0.9 | 0.9 | 0.00 | 0.53 | 0.00 | 84 | 1012.3 |
| 20260506223030 | 44 | 0 | 0.0 | 0.9 | 0.00 | 0.53 | 0.00 | 84 | 1012.4 |
| 20260506222530 | 44 | 0 | 0.0 | 0.9 | 0.00 | 0.53 | 0.00 | 84 | 1012.3 |
| 20260506222030 | 44 | 0 | 0.0 | 0.9 | 0.00 | 0.53 | 0.00 | 84 | 1012.2 |
| 20260506221531 | 44 | 0 | 0.0 | 0.9 | 0.00 | 0.53 | 0.00 | 83 | 1012.4 |
| 20260506221033 | 44 | 0 | 0.0 | 0.9 | 0.00 | 0.53 | 0.00 | 83 | 1012.4 |
| 20260506220533 | 44 | 0 | 0.9 | 1.7 | 0.00 | 0.53 | 0.00 | 82 | 1012.3 |
| 20260506220030 | 44 | 0 | 0.0 | 0.9 | 0.00 | 0.53 | 0.00 | 81 | 1012.4 |
| 20260506215533 | 44 | 0 | 0.0 | 1.7 | 0.00 | 0.53 | 0.00 | 81 | 1012.3 |
| 20260506215030 | 44 | 0 | 0.0 | 0.9 | 0.00 | 0.53 | 0.00 | 81 | 1012.3 |
| 20260506214530 | 45 | 0 | 0.0 | 1.7 | 0.00 | 0.53 | 0.00 | 81 | 1012.1 |
| 20260506214036 | 44 | 0 | 0.9 | 2.6 | 0.00 | 0.53 | 0.00 | 81 | 1012.0 |
| 20260506213531 | 45 | 0 | 1.7 | 1.7 | 0.00 | 0.53 | 0.00 | 80 | 1012.0 |
| 20260506213030 | 45 | 0 | 0.9 | 0.9 | 0.00 | 0.53 | 0.00 | 80 | 1012.2 |
| 20260506212530 | 45 | 0 | 0.0 | 0.9 | 0.00 | 0.53 | 0.00 | 80 | 1012.2 |
| 20260506212030 | 45 | 0 | 0.0 | 1.7 | 0.00 | 0.53 | 0.00 | 80 | 1012.1 |
| 20260506211533 | 45 | 0 | 0.9 | 1.7 | 0.00 | 0.53 | 0.00 | 80 | 1012.2 |
| 20260506211034 | 45 | 0 | 0.9 | 2.6 | 0.00 | 0.53 | 0.00 | 80 | 1012.2 |
| 20260506210530 | 45 | 0 | 0.9 | 1.7 | 0.00 | 0.53 | 0.00 | 81 | 1012.3 |
| 20260506210039 | 44 | 0 | 0.0 | 0.9 | 0.00 | 0.53 | 0.00 | 82 | 1012.3 |
| 20260506205531 | 45 | 0 | 0.0 | 0.9 | 0.00 | 0.53 | 0.00 | 81 | 1012.4 |
| 20260506205034 | 45 | 0 | 0.0 | 0.9 | 0.00 | 0.53 | 0.00 | 81 | 1012.3 |
| 20260506204539 | 45 | 0 | 0.9 | 1.7 | 0.00 | 0.53 | 0.00 | 81 | 1012.2 |
| 20260506204042 | 44 | 0 | 0.9 | 1.7 | 0.00 | 0.53 | 0.00 | 81 | 1012.1 |
| 20260506203531 | 45 | 0 | 0.9 | 0.9 | 0.00 | 0.53 | 0.00 | 82 | 1012.1 |
| 20260506203034 | 45 | 0 | 0.9 | 0.9 | 0.00 | 0.53 | 0.00 | 82 | 1012.0 |
| 20260506202531 | 45 | 0 | 1.7 | 1.7 | 0.00 | 0.53 | 0.00 | 81 | 1011.9 |
| 20260506202030 | 45 | 0 | 0.9 | 1.7 | 0.00 | 0.53 | 0.00 | 80 | 1011.9 |
| 20260506201533 | 45 | 0 | 0.9 | 1.7 | 0.00 | 0.53 | 0.00 | 80 | 1011.8 |
| 20260506201033 | 45 | 0 | 0.9 | 1.7 | 0.00 | 0.53 | 0.00 | 79 | 1011.6 |
| 20260506200534 | 46 | 0 | 0.9 | 1.7 | 0.00 | 0.53 | 0.00 | 78 | 1011.5 |
| 20260506200030 | 46 | 0 | 0.9 | 1.7 | 0.00 | 0.53 | 0.00 | 78 | 1011.5 |
| 20260506195534 | 46 | 0 | 0.9 | 1.7 | 0.00 | 0.53 | 0.00 | 77 | 1011.4 |
| 20260506195033 | 46 | 0 | 0.9 | 2.6 | 0.00 | 0.53 | 0.00 | 77 | 1011.2 |
| 20260506194533 | 47 | 0 | 0.9 | 1.7 | 0.00 | 0.53 | 0.00 | 77 | 1011.2 |
| 20260506194036 | 47 | 0 | 0.9 | 0.9 | 0.00 | 0.53 | 0.00 | 78 | 1011.2 |
| 20260506193534 | 47 | 0 | 0.9 | 1.7 | 0.00 | 0.53 | 0.00 | 76 | 1010.9 |
| 20260506193034 | 48 | 0 | 0.0 | 0.9 | 0.00 | 0.53 | 0.00 | 76 | 1010.9 |
| 20260506192530 | 48 | 0 | 0.9 | 0.9 | 0.00 | 0.53 | 0.00 | 75 | 1010.8 |
| 20260506192030 | 48 | 0 | 0.9 | 0.9 | 0.00 | 0.53 | 0.00 | 75 | 1010.7 |
| 20260506191530 | 49 | 0 | 0.0 | 1.7 | 0.00 | 0.53 | 0.00 | 73 | 1010.7 |
| 20260506191031 | 49 | 0 | 0.9 | 1.7 | 0.00 | 0.53 | 0.00 | 74 | 1010.6 |
| 20260506190531 | 50 | 0 | 0.0 | 1.7 | 0.00 | 0.53 | 0.00 | 72 | 1010.5 |